SB KEPS @ AMSAT $ORB11006.N 2Line Orbital Elements 11006.AMSAT
HR AMSAT ORBITAL ELEMENTS FOR AMATEUR SATELLITES IN NASA FORMAT FROM WA5QGD FORT WORTH,TX January 6, 2011 Send Subscribe/unsubscribe to KEPS at http://www.amsat.org/mailman/listinfo/keps BID: ORB11006.N
DECODE 2-LINE ELSETS WITH THE FOLLOWING KEY: 1 AAAAAU 00 0 0 BBBBB.BBBBBBBB .CCCCCCCC 00000-0 00000-0 0 DDDZ 2 AAAAA EEE.EEEE FFF.FFFF GGGGGGG HHH.HHHH III.IIII JJ.JJJJJJJJKKKKKZ KEY: A-CATALOGNUM B-EPOCHTIME C-DECAY D-ELSETNUM E-INCLINATION F-RAAN G-ECCENTRICITY H-ARGPERIGEE I-MNANOM J-MNMOTION K-ORBITNUM Z-CHECKSUM
TO ALL RADIO AMATEURS BT
AO-07 1 07530U 74089B 11005.91035881 -.00000027 00000-0 10000-3 0 09720 2 07530 101.3954 018.8522 0011818 237.2593 122.7338 12.53580729653851 FO-29 1 24278U 96046B 11006.47119740 .00000040 00000-0 79464-4 0 4767 2 24278 098.5214 172.5877 0350214 316.6552 040.7519 13.52956548710590 SO-33 1 25509U 98061B 11005.59854408 .00000232 00000-0 31799-4 0 8758 2 25509 031.4340 083.8532 0354030 259.7927 096.2585 14.28353863637018 RS-22 1 27939U 03042A 11006.66829483 .00000136 00000-0 34837-4 0 8755 2 27939 097.8642 228.1907 0014324 133.2489 226.9911 14.63497157388715 VO-52 1 28650U 05017B 11006.58943328 .00000400 00000-0 56717-4 0 6872 2 28650 097.6664 056.7815 0026496 333.5164 026.4684 14.81886992306819 SO-67 1 35870U 09049F 11006.66380666 .00000933 00000-0 44719-4 0 4465 2 35870 097.3056 055.1171 0004605 097.5341 048.6629 15.21276505 72388 HO-68 1 36122U 09072B 11006.79778227 -.00000045 00000-0 00000 0 0 01 2 36122 100.4422 069.9064 0007209 231.1302 128.9169 13.16283586 51008 UO-11 1 14781U 84021B 11005.80232715 .00000429 00000-0 63925-4 0 4361 2 14781 098.0290 062.8382 0008259 308.5068 051.5385 14.79878214441775 AO-16 1 20439U 90005D 11005.83704760 .00000019 00000-0 22909-4 0 00867 2 20439 098.3620 321.0722 0010217 288.3164 071.6919 14.31890308094382 LO-19 1 20442U 90005G 11006.50108127 -.00000025 00000-0 61785-5 0 9943 2 20442 098.3244 326.6981 0011023 278.5684 081.4236 14.32118434 94655 AO-27 1 22825U 93061C 11005.88434952 -.00000037 00000-0 23288-5 0 07186 2 22825 098.5122 313.8509 0009080 037.2580 322.9262 14.29321823901000 IO-26 1 22826U 93061D 11005.84335013 -.00000011 00000-0 12522-4 0 4548 2 22826 098.5067 314.3407 0009479 032.3254 327.8508 14.29580801901110 GO-32 1 25397U 98043D 11006.07164611 -.00000122 00000-0 -35905-4 0 3755 2 25397 098.3174 007.3874 0001952 054.8797 305.2560 14.23193202648901 NO-44 1 26931U 01043C 11006.57732990 .00000114 00000-0 76629-4 0 6480 2 26931 067.0524 039.9398 0006641 273.1830 086.8499 14.29629375483826 SO-50 1 27607U 02058C 11005.65801414 .00000001 00000-0 22077-4 0 03608 2 27607 064.5589 101.4898 0054021 000.7431 359.3726 14.71626507432170 CO-55 1 27844U 03031E 11005.92157320 .00000080 00000-0 57219-4 0 00175 2 27844 098.7079 016.9766 0009443 310.7327 049.3042 14.20759434389871 CO-57 1 27848U 03031J 11005.55847493 .00000082 00000-0 58417-4 0 09649 2 27848 098.7136 015.7576 0009454 316.5065 043.5377 14.20546119389770 AO-51 1 28375U 04025K 11006.01577868 .00000032 00000-0 22474-4 0 8656 2 28375 098.0787 353.1586 0082937 201.6717 158.0951 14.40718369342719 CP3 1 31129U 07012N 11005.63408376 .00000121 00000-0 38666-4 0 07669 2 31129 097.9170 039.1216 0101774 326.3340 033.1412 14.52359273197242 CO-65 1 32785U 08021C 11005.21436984 .00000558 00000-0 77209-4 0 08817 2 32785 097.8730 072.0754 0014773 351.8719 008.2272 14.81802038145402 KKS-1 1 33493U 09002B 11006.60124664 .00000682 00000-0 94278-4 0 1947 2 33493 098.1046 133.1367 0019475 200.2956 159.7490 14.81271617105599 SOHLA-1 1 33496U 09002E 11006.75092445 .00000046 00000-0 15963-4 0 3004 2 33496 098.0691 118.3591 0005482 277.9270 082.1332 14.69546368104771 TISAT-1 1 36799U 10035E 11006.59741765 .00000416 00000-0 61678-4 0 4689 2 36799 098.1240 073.1255 0016743 079.8159 280.4946 14.80282238 26406 STUDSAT 1 36801U 10035G 11005.97941268 .00001055 00000-0 14667-3 0 01260 2 36801 098.1270 072.3677 0014946 069.7741 290.5074 14.79925034026309 RAX 1 37223U 0 11004.54666099 .00000257 00000-0 44033-4 0 00463 2 37223 071.9737 039.8825 0022634 233.4835 126.4234 14.77209942006725 OOREOS 1 37224U 10062C 10361.49649035 .00000232 00000-0 40853-4 0 00417 2 37224 071.9733 057.6930 0021329 245.9311 113.9603 14.76870385005526 FASTSAT 1 37225U 10062D 10339.55430316 .00000041 00000-0 13962-4 0 00217 2 37225 071.9720 106.1057 0019965 280.4841 079.4053 14.76483442002287 FAST1-2 1 37227U 0 11003.48774389 .00000048 00000-0 14990-4 0 00435 2 37227 071.9734 042.3429 0018842 230.4777 129.4699 14.76381197006554 NOAA-10 1 16969U 86073A 11006.15066574 -.00000058 00000-0 -58391-5 0 3470 2 16969 098.6365 038.0020 0012115 343.0049 017.0709 14.27439665264537 NOAA-11 1 19531U 88089A 11006.26188055 -.00000276 00000-0 -12024-3 0 3527 2 19531 098.7606 096.7577 0010615 293.2871 066.7172 14.14899369149853 NOAA-12 1 21263U 91032A 11006.46001769 .00000053 00000-0 41089-4 0 8454 2 21263 098.7589 024.5281 0011757 299.6624 060.3388 14.25677397 21364 MET-3/5 1 21655U 91056A 11005.86490984 .00000051 00000-0 10000-3 0 00075 2 21655 082.5554 165.4465 0013088 198.7201 161.3501 13.17027187932355 MET-2/21 1 22782U 93055A 11006.78140905 .00000001 00000-0 -12857-4 0 9848 2 22782 082.5485 090.9446 0022039 187.8574 172.2256 13.83653432876232 OKEAN-4 1 23317U 94066A 11006.49939391 .00000247 00000-0 27458-4 0 4400 2 23317 082.5394 164.0854 0020611 294.0193 065.8847 14.82919654876586 NOAA-14 1 23455U 94089A 11006.46722495 .00000013 00000-0 30069-4 0 3334 2 23455 098.8642 090.6478 0009874 023.6971 336.4667 14.13803997826228 NOAA-15 1 25338U 98030A 11006.23700120 -.00000072 00000-0 -12057-4 0 6609 2 25338 098.6387 354.7371 0010364 199.4553 160.6246 14.24875777657661 RESURS 1 25394U 98043A 11006.59412920 .00000026 00000-0 29096-4 0 6936 2 25394 098.2987 018.5267 0001831 016.2710 343.8524 14.24221110649306 FENGYUN1 1 25730U 99025A 11005.78689655 .00000366 00000-0 23797-3 0 02262 2 25730 098.8035 330.6773 0022062 047.3360 312.9658 14.08494557600205 OKEAN-0 1 25860U 99039A 11005.61954263 .00000092 00000-0 21468-4 0 01969 2 25860 097.8607 336.7626 0001587 102.5910 257.5470 14.73698647616718 NOAA-16 1 26536U 00055A 11006.30067930 -.00000252 00000-0 -11107-3 0 1400 2 26536 099.1569 033.4269 0011133 125.0892 235.1326 14.12591092530505 NOAA-17 1 27453U 02032A 11006.31471222 .00000098 00000-0 60567-4 0 1355 2 27453 098.4039 053.2812 0010745 262.9894 097.0094 14.24224986443613 NOAA-18 1 28654U 05018A 11006.26209639 .00000454 00000-0 27499-3 0 6202 2 28654 098.9768 317.1907 0014073 198.4678 161.6002 14.11426506290085 NOAA-19 1 33591U 09005A 11006.29456839 -.00000026 00000-0 95594-5 0 8152 2 33591 098.8124 309.3091 0014993 075.1702 285.1137 14.11118194 98553 HUBBLE 1 20580U 90037B 11004.24385423 .00000555 00000-0 29520-4 0 6962 2 20580 028.4705 007.1641 0003638 177.7199 182.3474 15.01131757934997 ISS 1 25544U 98067A 11007.07083667 .00012324 00000-0 94461-4 0 5936 2 25544 051.6474 266.8629 0005221 110.9511 032.4565 15.72554949695541 CO-58 1 28895U 05043F 11006.19307638 .00000209 00000-0 52958-4 0 7698 2 28895 097.9896 248.6218 0018110 012.5354 347.6279 14.59990489276601 FALCON 1 30776U 07006E 11006.89934066 .00000869 00000-0 64538-4 0 9947 2 30776 035.4335 247.1817 0000229 227.1830 132.8867 15.04050258210743 MAST 1 31126U 07012K 11005.59503955 .00000070 00000-0 26343-4 0 00531 2 31126 097.9146 041.8698 0093967 317.2723 042.1194 14.53660989197465 CAPE1 1 31130U 07012P 11005.63450173 .00000335 00000-0 87906-4 0 00743 2 31130 097.9178 038.9350 0101728 326.6647 032.8164 14.52276071197042 COMPASS 1 32787U 08021E 11006.73618486 .00000336 00000-0 48837-4 0 8758 2 32787 097.8701 073.4341 0015658 346.4930 013.5867 14.82100729145641 AAUSAT2 1 32788U 08021F 11005.70605469 .00000600 00000-0 81625-4 0 08668 2 32788 097.8710 072.5974 0015057 351.6944 008.3974 14.82261312145502 DO-64 1 32789U 08021G 11005.68743760 .00001174 00000-0 15244-3 0 08810 2 32789 097.8797 073.3126 0015194 349.0493 011.0398 14.82530770145506 CO-66 1 32791U 08021J 11006.79007790 -.00000159 00000-0 -13367-4 0 8664 2 32791 097.8712 073.4690 0015741 345.2512 014.8226 14.81846708145603 RS-30 1 32953U 08025A 11006.76705946 .00000010 00000-0 00000 0 0 3656 2 32953 082.5019 263.0831 0019756 020.5859 339.6010 12.43010126119035 TACSAT-3 1 35001U 09028A 11005.57070625 .00006782 00000-0 14763-3 0 04887 2 35001 040.4547 076.3355 0021588 077.8547 282.4686 15.44301578091909 PHARMSAT 1 35002U 09028B 11005.60098602 .00005983 00000-0 12956-3 0 4409 2 35002 040.4692 073.6660 0023578 082.4320 277.9174 15.44561913 91937 HAWKSAT1 1 35003U 09028C 11006.48667854 .00017174 00000-0 29163-3 0 4805 2 35003 040.4572 054.8524 0022332 114.9470 245.3671 15.50732267 92222 CP6 1 35004U 09028D 11006.50115917 .00020444 00000-0 32150-3 0 4823 2 35004 040.4587 051.3626 0021756 121.5889 238.7052 15.52801392 92251 AEROCUB3 1 35005U 09028E 11006.09222617 .14049365 73043-5 82692-3 0 6103 2 35005 040.4461 021.7975 0025578 084.1677 280.7191 16.39196088 92544 METEOR-M 1 35865U 09049A 11006.64893187 .00000176 00000-0 10000-3 0 9889 2 35865 098.7319 063.6946 0002930 123.2974 236.8454 14.21833934 67634 RS-38 1 35869U 09049E 11006.66818595 .00000177 00000-0 10000-3 0 01 2 35869 098.7293 063.7533 0005117 130.5111 229.6489 14.21997411 67646 /EX
participants (1)
-
Ray Hoad